Date,TemperatureHighF,TemperatureAvgF,TemperatureLowF,DewpointHighF,DewpointAvgF,DewpointLowF,HumidityHigh,HumidityAvg,HumidityLow,PressureMaxIn,PressureMinIn,WindSpeedMaxMPH,WindSpeedAvgMPH,GustSpeedMaxMPH,PrecipitationSumIn
2013-4-1,64.6,47.9,33.4,47.3,35.6,14.4,100,66,40,29.21,28.94,30,8,30,0.04
2013-4-2,49.3,35.9,25.3,25.2,15.8,9.7,56,44,39,29.38,29.21,26,8,26,0.00
2013-4-3,49.6,37.0,27.0,25.4,15.7,7.3,43,42,39,29.62,29.38,35,11,35,0.00
2013-4-4,57.2,39.0,26.2,31.2,19.2,8.4,64,45,37,29.77,29.50,22,7,22,0.00
2013-4-5,64.2,46.8,37.0,36.7,27.8,17.7,62,49,36,29.50,29.03,31,8,31,0.00
2013-4-6,55.8,40.8,32.2,30.1,20.0,0.0,52,43,37,29.74,29.26,30,9,30,0.00
2013-4-7,56.8,43.5,31.3,39.6,28.9,17.5,97,58,40,29.74,29.44,26,6,26,0.00
2013-4-8,73.2,55.0,44.2,47.1,40.3,32.5,100,63,36,29.50,29.35,21,4,21,0.00
2013-4-9,81.5,61.1,45.1,58.3,44.9,33.9,100,62,34,29.47,29.26,29,6,29,0.00
2013-4-10,72.5,53.4,46.0,48.4,42.4,36.8,100,70,39,29.44,29.23,31,4,31,0.20
2013-4-11,62.8,51.0,43.9,51.9,40.1,26.0,100,70,44,29.50,29.21,22,4,22,0.00
2013-4-12,44.1,41.0,38.1,40.3,32.1,23.5,100,74,48,29.50,29.09,35,10,35,0.63
2013-4-13,59.0,45.7,37.4,39.9,32.5,27.1,100,64,39,29.35,29.09,26,7,26,0.00
2013-4-14,59.4,47.7,39.0,35.6,28.8,17.8,74,49,37,29.65,29.32,26,7,26,0.00
2013-4-15,57.4,44.9,35.1,39.9,27.1,17.7,100,51,37,29.85,29.62,12,4,12,0.00
2013-4-16,62.2,50.1,38.8,42.5,38.9,32.7,100,69,44,29.85,29.56,26,6,26,0.00
2013-4-17,76.5,58.1,42.6,51.6,39.5,30.3,90,52,35,29.77,29.53,21,7,21,0.00
2013-4-18,64.4,50.4,38.1,45.1,33.4,27.9,82,54,35,29.83,29.56,20,4,20,0.00
2013-4-19,71.1,59.2,50.4,64.6,56.9,45.1,100,94,52,29.56,29.09,25,7,25,0.08
2013-4-20,61.7,53.4,43.5,61.7,40.5,23.3,100,66,39,29.65,29.03,25,8,25,0.59
2013-4-21,60.6,43.7,32.5,34.2,23.6,15.2,62,45,37,30.12,29.65,30,8,30,0.00
2013-4-22,61.7,44.4,31.1,36.3,28.7,24.2,95,56,39,30.18,30.00,29,6,29,0.00
2013-4-23,45.5,41.6,37.6,40.9,34.7,25.7,93,77,61,30.00,29.44,36,11,36,0.00
2013-4-24,73.8,52.6,41.7,51.3,40.5,34.8,100,68,36,29.44,29.26,35,10,35,0.00
2013-4-25,70.3,55.4,44.6,53.1,38.3,23.0,100,57,35,29.68,29.29,26,7,26,0.00
2013-4-26,70.0,52.4,37.8,44.0,31.4,18.6,99,46,37,29.85,29.68,15,4,15,0.00
2013-4-27,69.8,50.6,38.8,43.9,38.1,32.7,100,67,37,29.85,29.74,17,3,17,0.00
2013-4-28,70.2,53.0,39.4,47.5,37.9,28.1,100,62,35,29.77,29.68,12,3,12,0.00
2013-4-29,68.2,53.8,47.1,47.5,38.3,28.4,100,60,35,29.71,29.65,17,2,17,0.00
2013-4-30,70.5,55.4,44.6,43.0,32.5,22.8,58,42,35,29.80,29.68,15,3,15,0.00